Location: Holkham
(52.9500°N, 0.8167°E)
Time: 15:43:02
(UTC+00:00)

SAR-Lupe-2 - Pass Details

Date: 19 May 2025
Orbit: 478 x 487 km, 98.1° (Epoch: 16 May)

Event Time Altitude Azimuth Distance (km) Brightness Sun altitude
Exits shadow 20:57:49 - 172° (S) 1,941 6.1 -7.8°
Reaches altitude 10° 20:58:30 10° 173° (S) 1,653 5.8 -7.9°
Maximum altitude 21:02:02 66° 256° (WSW) 529 3.8 -8.2°
Drops below altitude 10° 21:05:36 10° 340° (NNW) 1,670 7.6 -8.6°
Sets 21:07:42 0° 343° (NNW) 2,557 8.7 -8.8°
